Year,Month,Day,Hour,Minute,Value (Times are PST for windspeed in km/hr)
2014,03,19,00,00,18.40
2014,03,19,00,01,22.90
2014,03,19,00,02,17.10
2014,03,19,00,03,23.20
2014,03,19,00,04,23.80
2014,03,19,00,05,20.80
2014,03,19,00,06,24.20
2014,03,19,00,07,18.80
2014,03,19,00,08,19.50
2014,03,19,00,09,20.20
2014,03,19,00,10,15.80
2014,03,19,00,11,19.50
2014,03,19,00,12,20.80
2014,03,19,00,13,17.70
2014,03,19,00,14,13.00
2014,03,19,00,15,20.00
2014,03,19,00,16,18.40
2014,03,19,00,17,22.60
2014,03,19,00,18,17.20
2014,03,19,00,19,18.70
2014,03,19,00,20,22.10
2014,03,19,00,21,20.90
2014,03,19,00,22,16.50
2014,03,19,00,23,16.10
2014,03,19,00,24,17.40
2014,03,19,00,25,20.80
2014,03,19,00,26,18.30
2014,03,19,00,27,22.70
2014,03,19,00,28,23.40
2014,03,19,00,29,19.80
2014,03,19,00,30,13.80
2014,03,19,00,31,24.30
2014,03,19,00,32,22.50
2014,03,19,00,33,18.70
2014,03,19,00,34,18.60
2014,03,19,00,35,23.30
2014,03,19,00,36,19.80
2014,03,19,00,37,23.60
2014,03,19,00,38,22.80
2014,03,19,00,39,26.40
2014,03,19,00,40,23.70
2014,03,19,00,41,24.90
2014,03,19,00,42,19.90
2014,03,19,00,43,29.40
2014,03,19,00,44,27.70
2014,03,19,00,45,29.40
2014,03,19,00,46,23.60
2014,03,19,00,47,23.20
2014,03,19,00,48,22.80
2014,03,19,00,49,18.20
2014,03,19,00,50,13.50
2014,03,19,00,51,26.80
2014,03,19,00,52,23.40
2014,03,19,00,53,20.00
2014,03,19,00,54,17.70
2014,03,19,00,55,13.80
2014,03,19,00,56,12.30
2014,03,19,00,57,13.00
2014,03,19,00,58,13.30
2014,03,19,00,59,12.90
2014,03,19,01,00,15.40
2014,03,19,01,01,18.70
2014,03,19,01,02,21.20
2014,03,19,01,03,16.60
2014,03,19,01,04,10.90
2014,03,19,01,05,14.90
2014,03,19,01,06,14.80
2014,03,19,01,07,14.80
2014,03,19,01,08,16.40
2014,03,19,01,09,20.10
2014,03,19,01,10,18.60
2014,03,19,01,11,23.40
2014,03,19,01,12,20.70
2014,03,19,01,13,16.20
2014,03,19,01,14,19.90
2014,03,19,01,15,18.90
2014,03,19,01,16,16.30
2014,03,19,01,17,20.60
2014,03,19,01,18,22.50
2014,03,19,01,19,21.20
2014,03,19,01,20,22.20
2014,03,19,01,21,20.80
2014,03,19,01,22,17.70
2014,03,19,01,23,9.30
2014,03,19,01,24,19.20
2014,03,19,01,25,15.00
2014,03,19,01,26,7.70
2014,03,19,01,27,11.40
2014,03,19,01,28,9.90
2014,03,19,01,29,12.30
2014,03,19,01,30,18.80
2014,03,19,01,31,12.70
2014,03,19,01,32,11.60
2014,03,19,01,33,12.90
2014,03,19,01,34,9.70
2014,03,19,01,35,7.10
2014,03,19,01,36,6.20
2014,03,19,01,37,6.00
2014,03,19,01,38,16.20
2014,03,19,01,39,10.50
2014,03,19,01,40,12.60
2014,03,19,01,41,10.20
2014,03,19,01,42,9.30
2014,03,19,01,43,12.00
2014,03,19,01,44,12.00
2014,03,19,01,45,7.00
2014,03,19,01,46,6.50
2014,03,19,01,47,9.30
2014,03,19,01,48,10.50
2014,03,19,01,49,12.30
2014,03,19,01,50,4.90
2014,03,19,01,51,10.90
2014,03,19,01,52,11.60
2014,03,19,01,53,10.80
2014,03,19,01,54,7.90
2014,03,19,01,55,9.80
2014,03,19,01,56,10.20
2014,03,19,01,57,10.00
2014,03,19,01,58,5.60
2014,03,19,01,59,3.40
2014,03,19,02,00,6.50
2014,03,19,02,01,9.40
2014,03,19,02,02,8.90
2014,03,19,02,03,6.00
2014,03,19,02,04,6.70
2014,03,19,02,05,7.40
2014,03,19,02,06,7.10
2014,03,19,02,07,4.00
2014,03,19,02,08,3.40
2014,03,19,02,09,1.80
2014,03,19,02,10,1.50
2014,03,19,02,11,4.20
2014,03,19,02,12,4.60
2014,03,19,02,13,3.50
2014,03,19,02,14,4.30
2014,03,19,02,15,3.50
2014,03,19,02,16,0.90
2014,03,19,02,17,1.50
2014,03,19,02,18,1.20
2014,03,19,02,19,5.60
2014,03,19,02,20,8.90
2014,03,19,02,21,4.50
2014,03,19,02,22,4.60
2014,03,19,02,23,0.40
2014,03,19,02,24,2.30
2014,03,19,02,25,6.60
2014,03,19,02,26,5.00
2014,03,19,02,27,2.90
2014,03,19,02,28,3.50
2014,03,19,02,29,2.80
2014,03,19,02,30,4.10
2014,03,19,02,31,5.60
2014,03,19,02,32,4.30
2014,03,19,02,33,5.00
2014,03,19,02,34,4.10
2014,03,19,02,35,4.50
2014,03,19,02,36,4.60
2014,03,19,02,37,1.50
2014,03,19,02,38,0.00
2014,03,19,02,39,0.10
2014,03,19,02,40,3.40
2014,03,19,02,41,3.20
2014,03,19,02,42,4.10
2014,03,19,02,43,4.30
2014,03,19,02,44,3.50
2014,03,19,02,45,2.30
2014,03,19,02,46,1.90
2014,03,19,02,47,0.80
2014,03,19,02,48,4.20
2014,03,19,02,49,6.40
2014,03,19,02,50,8.40
2014,03,19,02,51,4.70
2014,03,19,02,52,2.50
2014,03,19,02,53,2.20
2014,03,19,02,54,2.70
2014,03,19,02,55,3.20
2014,03,19,02,56,6.00
2014,03,19,02,57,2.90
2014,03,19,02,58,2.50
2014,03,19,02,59,1.90
2014,03,19,03,00,3.60
2014,03,19,03,01,3.50
2014,03,19,03,02,2.20
2014,03,19,03,03,4.40
2014,03,19,03,04,4.20
2014,03,19,03,05,3.00
2014,03,19,03,06,3.90
2014,03,19,03,07,2.70
2014,03,19,03,08,3.60
2014,03,19,03,09,2.60
2014,03,19,03,10,4.00
2014,03,19,03,11,4.50
2014,03,19,03,12,3.60
2014,03,19,03,13,0.60
2014,03,19,03,14,0.40
2014,03,19,03,15,2.10
2014,03,19,03,16,2.50
2014,03,19,03,17,2.20
2014,03,19,03,18,3.40
2014,03,19,03,19,0.00
2014,03,19,03,20,0.00
2014,03,19,03,21,3.10
2014,03,19,03,22,6.80
2014,03,19,03,23,6.90
2014,03,19,03,24,6.70
2014,03,19,03,25,4.00
2014,03,19,03,26,5.30
2014,03,19,03,27,6.40
2014,03,19,03,28,7.20
2014,03,19,03,29,7.70
2014,03,19,03,30,10.10
2014,03,19,03,31,9.30
2014,03,19,03,32,9.30
2014,03,19,03,33,10.30
2014,03,19,03,34,6.90
2014,03,19,03,35,6.80
2014,03,19,03,36,9.00
2014,03,19,03,37,6.90
2014,03,19,03,38,6.30
2014,03,19,03,39,7.80
2014,03,19,03,40,12.90
2014,03,19,03,41,10.20
2014,03,19,03,42,8.50
2014,03,19,03,43,7.70
2014,03,19,03,44,7.30
2014,03,19,03,45,8.60
2014,03,19,03,46,9.40
2014,03,19,03,47,10.70
2014,03,19,03,48,9.20
2014,03,19,03,49,9.60
2014,03,19,03,50,8.50
2014,03,19,03,51,8.60
2014,03,19,03,52,9.50
2014,03,19,03,53,7.60
2014,03,19,03,54,9.40
2014,03,19,03,55,10.30
2014,03,19,03,56,10.20
2014,03,19,03,57,8.90
2014,03,19,03,58,6.20
2014,03,19,03,59,8.60
2014,03,19,04,00,6.70
2014,03,19,04,01,6.00
2014,03,19,04,02,7.30
2014,03,19,04,03,5.70
2014,03,19,04,04,6.70
2014,03,19,04,05,6.50
2014,03,19,04,06,7.90
2014,03,19,04,07,6.20
2014,03,19,04,08,4.60
2014,03,19,04,09,5.90
2014,03,19,04,10,7.20
2014,03,19,04,11,5.70
2014,03,19,04,12,4.30
2014,03,19,04,13,3.90
2014,03,19,04,14,4.70
2014,03,19,04,15,5.80
2014,03,19,04,16,4.30
2014,03,19,04,17,5.60
2014,03,19,04,18,5.00
2014,03,19,04,19,5.60
2014,03,19,04,20,4.50
2014,03,19,04,21,5.10
2014,03,19,04,22,6.30
2014,03,19,04,23,5.40
2014,03,19,04,24,6.00
2014,03,19,04,25,5.10
2014,03,19,04,26,7.10
2014,03,19,04,27,7.10
2014,03,19,04,28,6.90
2014,03,19,04,29,6.30
2014,03,19,04,30,5.40
2014,03,19,04,31,5.80
2014,03,19,04,32,5.90
2014,03,19,04,33,5.40
2014,03,19,04,34,6.40
2014,03,19,04,35,6.40
2014,03,19,04,36,7.50
2014,03,19,04,37,7.00
2014,03,19,04,38,5.60
2014,03,19,04,39,6.30
2014,03,19,04,40,6.40
2014,03,19,04,41,6.50
2014,03,19,04,42,8.40
2014,03,19,04,43,6.10
2014,03,19,04,44,7.30
2014,03,19,04,45,6.80
2014,03,19,04,46,5.50
2014,03,19,04,47,7.80
2014,03,19,04,48,5.20
2014,03,19,04,49,4.10
2014,03,19,04,50,6.30
2014,03,19,04,51,5.90
2014,03,19,04,52,7.30
2014,03,19,04,53,5.40
2014,03,19,04,54,6.60
2014,03,19,04,55,9.10
2014,03,19,04,56,6.60
2014,03,19,04,57,6.60
2014,03,19,04,58,6.70
2014,03,19,04,59,7.80
2014,03,19,05,00,7.40
2014,03,19,05,01,9.00
2014,03,19,05,02,7.70
2014,03,19,05,03,9.10
2014,03,19,05,04,9.00
2014,03,19,05,05,9.40
2014,03,19,05,06,8.80
2014,03,19,05,07,9.60
2014,03,19,05,08,8.10
2014,03,19,05,09,8.50
2014,03,19,05,10,11.10
2014,03,19,05,11,6.70
2014,03,19,05,12,5.70
2014,03,19,05,13,6.80
2014,03,19,05,14,6.20
2014,03,19,05,15,6.00
2014,03,19,05,16,6.30
2014,03,19,05,17,6.60
2014,03,19,05,18,5.80
2014,03,19,05,19,5.50
2014,03,19,05,20,3.70
2014,03,19,05,21,3.90
2014,03,19,05,22,3.60
2014,03,19,05,23,2.60
2014,03,19,05,24,4.10
2014,03,19,05,25,3.00
2014,03,19,05,26,2.30
2014,03,19,05,27,2.20
2014,03,19,05,28,2.60
2014,03,19,05,29,2.90
2014,03,19,05,30,3.10
2014,03,19,05,31,0.40
2014,03,19,05,32,0.00
2014,03,19,05,33,0.00
2014,03,19,05,34,0.10
2014,03,19,05,35,3.10
2014,03,19,05,36,3.70
2014,03,19,05,37,4.50
2014,03,19,05,38,4.10
2014,03,19,05,39,2.90
2014,03,19,05,40,4.30
2014,03,19,05,41,6.20
2014,03,19,05,42,6.40
2014,03,19,05,43,6.40
2014,03,19,05,44,6.60
2014,03,19,05,45,5.30
2014,03,19,05,46,5.50
2014,03,19,05,47,5.90
2014,03,19,05,48,7.20
2014,03,19,05,49,8.50
2014,03,19,05,50,7.60
2014,03,19,05,51,7.30
2014,03,19,05,52,6.60
2014,03,19,05,53,6.70
2014,03,19,05,54,8.80
2014,03,19,05,55,9.70
2014,03,19,05,56,7.10
2014,03,19,05,57,7.40
2014,03,19,05,58,6.70
2014,03,19,05,59,6.20
2014,03,19,06,00,6.90
2014,03,19,06,01,4.70
2014,03,19,06,02,5.50
2014,03,19,06,03,6.00
2014,03,19,06,04,5.90
2014,03,19,06,05,5.30
2014,03,19,06,06,7.10
2014,03,19,06,07,5.90
2014,03,19,06,08,6.80
2014,03,19,06,09,6.30
2014,03,19,06,10,4.60
2014,03,19,06,11,7.60
2014,03,19,06,12,6.30
2014,03,19,06,13,5.00
2014,03,19,06,14,6.10
2014,03,19,06,15,6.00
2014,03,19,06,16,6.10
2014,03,19,06,17,6.40
2014,03,19,06,18,5.20
2014,03,19,06,19,5.10
2014,03,19,06,20,6.00
2014,03,19,06,21,5.50
2014,03,19,06,22,4.50
2014,03,19,06,23,4.30
2014,03,19,06,24,5.40
2014,03,19,06,25,6.50
2014,03,19,06,26,5.00
2014,03,19,06,27,2.50
2014,03,19,06,28,1.10
2014,03,19,06,29,0.10
2014,03,19,06,30,0.10
2014,03,19,06,31,0.00
2014,03,19,06,32,0.00
2014,03,19,06,33,0.00
2014,03,19,06,34,2.40
2014,03,19,06,35,1.60
2014,03,19,06,36,3.90
2014,03,19,06,37,3.40
2014,03,19,06,38,2.50
2014,03,19,06,39,3.60
2014,03,19,06,40,5.60
2014,03,19,06,41,6.40
2014,03,19,06,42,6.00
2014,03,19,06,43,4.10
2014,03,19,06,44,6.20
2014,03,19,06,45,7.00
2014,03,19,06,46,7.00
2014,03,19,06,47,7.20
2014,03,19,06,48,7.10
2014,03,19,06,49,8.30
2014,03,19,06,50,7.30
2014,03,19,06,51,8.40
2014,03,19,06,52,8.70
2014,03,19,06,53,9.00
2014,03,19,06,54,8.50
2014,03,19,06,55,9.80
2014,03,19,06,56,10.40
2014,03,19,06,57,9.80
2014,03,19,06,58,7.80
2014,03,19,06,59,9.70
2014,03,19,07,00,11.60
2014,03,19,07,01,11.60
2014,03,19,07,02,10.50
2014,03,19,07,03,8.80
2014,03,19,07,04,8.50
2014,03,19,07,05,6.80
2014,03,19,07,06,9.90
2014,03,19,07,07,9.00
2014,03,19,07,08,8.30
2014,03,19,07,09,6.40
2014,03,19,07,10,2.60
2014,03,19,07,11,3.90
2014,03,19,07,12,3.30
2014,03,19,07,13,9.60
2014,03,19,07,14,6.30
2014,03,19,07,15,7.50
2014,03,19,07,16,6.60
2014,03,19,07,17,7.20
2014,03,19,07,18,6.50
2014,03,19,07,19,7.00
2014,03,19,07,20,7.20
2014,03,19,07,21,5.70
2014,03,19,07,22,7.10
2014,03,19,07,23,6.60
2014,03,19,07,24,6.60
2014,03,19,07,25,5.60
2014,03,19,07,26,6.10
2014,03,19,07,27,5.20
2014,03,19,07,28,5.60
2014,03,19,07,29,3.70
2014,03,19,07,30,4.40
2014,03,19,07,31,5.60
2014,03,19,07,32,6.40
2014,03,19,07,33,6.30
2014,03,19,07,34,6.60
2014,03,19,07,35,8.10
2014,03,19,07,36,8.10
2014,03,19,07,37,8.10
2014,03,19,07,38,8.10
2014,03,19,07,39,7.80
2014,03,19,07,40,6.60
2014,03,19,07,41,7.00
2014,03,19,07,42,7.40
2014,03,19,07,43,5.90
2014,03,19,07,44,5.40
2014,03,19,07,45,5.60
2014,03,19,07,46,4.70
2014,03,19,07,47,4.30
2014,03,19,07,48,4.40
2014,03,19,07,49,4.60
2014,03,19,07,50,4.70
2014,03,19,07,51,5.20
2014,03,19,07,52,5.70
2014,03,19,07,53,6.40
2014,03,19,07,54,5.50
2014,03,19,07,55,5.60
2014,03,19,07,56,5.00
2014,03,19,07,57,5.10
2014,03,19,07,58,4.40
2014,03,19,07,59,6.10
2014,03,19,08,00,6.00
2014,03,19,08,01,4.50
2014,03,19,08,02,4.70
2014,03,19,08,03,1.80
2014,03,19,08,04,1.40
2014,03,19,08,05,2.20
2014,03,19,08,06,3.10
2014,03,19,08,07,4.30
2014,03,19,08,08,4.30
2014,03,19,08,09,3.40
2014,03,19,08,10,4.10
2014,03,19,08,11,4.10
2014,03,19,08,12,3.20
2014,03,19,08,13,5.00
2014,03,19,08,14,4.10
2014,03,19,08,15,3.60
2014,03,19,08,16,4.20
2014,03,19,08,17,4.10
2014,03,19,08,18,7.30
2014,03,19,08,19,4.80
2014,03,19,08,20,5.30
2014,03,19,08,21,4.00
2014,03,19,08,22,6.10
2014,03,19,08,23,6.20
2014,03,19,08,24,6.70
2014,03,19,08,25,9.50
2014,03,19,08,26,9.80
2014,03,19,08,27,10.50
2014,03,19,08,28,8.70
2014,03,19,08,29,6.80
2014,03,19,08,30,10.40
2014,03,19,08,31,8.70
2014,03,19,08,32,7.80
2014,03,19,08,33,10.10
2014,03,19,08,34,10.60
2014,03,19,08,35,8.60
2014,03,19,08,36,7.50
2014,03,19,08,37,6.90
2014,03,19,08,38,7.60
2014,03,19,08,39,7.40
2014,03,19,08,40,8.10
2014,03,19,08,41,7.00
2014,03,19,08,42,7.70
2014,03,19,08,43,6.40
2014,03,19,08,44,6.50
2014,03,19,08,45,6.20
2014,03,19,08,46,5.30
2014,03,19,08,47,4.30
2014,03,19,08,48,3.10
2014,03,19,08,49,2.50
2014,03,19,08,50,0.60
2014,03,19,08,51,0.00
2014,03,19,08,52,0.40
2014,03,19,08,53,4.30
2014,03,19,08,54,4.30
2014,03,19,08,55,3.10
2014,03,19,08,56,3.00
2014,03,19,08,57,2.50
2014,03,19,08,58,4.10
2014,03,19,08,59,5.50
2014,03,19,09,00,5.80
2014,03,19,09,01,6.00
2014,03,19,09,02,5.70
2014,03,19,09,03,6.10
2014,03,19,09,04,4.30
2014,03,19,09,05,6.40
2014,03,19,09,06,3.10
2014,03,19,09,07,2.60
2014,03,19,09,08,5.50
2014,03,19,09,09,6.00
2014,03,19,09,10,4.60
2014,03,19,09,11,6.50
2014,03,19,09,12,5.90
2014,03,19,09,13,5.30
2014,03,19,09,14,2.00
2014,03,19,09,15,4.30
2014,03,19,09,16,3.70
2014,03,19,09,17,6.10
2014,03,19,09,18,9.20
2014,03,19,09,19,9.30
2014,03,19,09,20,7.90
2014,03,19,09,21,9.30
2014,03,19,09,22,8.10
2014,03,19,09,23,9.40
2014,03,19,09,24,8.10
2014,03,19,09,25,7.30
2014,03,19,09,26,7.40
2014,03,19,09,27,6.90
2014,03,19,09,28,9.50
2014,03,19,09,29,4.50
2014,03,19,09,30,8.30
2014,03,19,09,31,6.70
2014,03,19,09,32,6.40
2014,03,19,09,33,5.40
2014,03,19,09,34,5.40
2014,03,19,09,35,4.70
2014,03,19,09,36,7.80
2014,03,19,09,37,6.40
2014,03,19,09,38,4.60
2014,03,19,09,39,4.00
2014,03,19,09,40,2.10
2014,03,19,09,41,0.00
2014,03,19,09,42,0.10
2014,03,19,09,43,0.50
2014,03,19,09,44,2.50
2014,03,19,09,45,6.10
2014,03,19,09,46,6.90
2014,03,19,09,47,6.50
2014,03,19,09,48,7.30
2014,03,19,09,49,6.40
2014,03,19,09,50,8.10
2014,03,19,09,51,6.50
2014,03,19,09,52,6.40
2014,03,19,09,53,6.40
2014,03,19,09,54,5.30
2014,03,19,09,55,4.30
2014,03,19,09,56,5.30
2014,03,19,09,57,5.90
2014,03,19,09,58,5.40
2014,03,19,09,59,6.80
2014,03,19,10,00,8.60
2014,03,19,10,01,7.60
2014,03,19,10,02,7.30
2014,03,19,10,03,6.90
2014,03,19,10,04,6.80
2014,03,19,10,05,6.80
2014,03,19,10,06,6.20
2014,03,19,10,07,8.50
2014,03,19,10,08,8.60
2014,03,19,10,09,6.00
2014,03,19,10,10,7.10
2014,03,19,10,11,8.30
2014,03,19,10,12,7.50
2014,03,19,10,13,7.70
2014,03,19,10,14,7.10
2014,03,19,10,15,4.70
2014,03,19,10,16,8.40
2014,03,19,10,17,8.80
2014,03,19,10,18,5.00
2014,03,19,10,19,3.50
2014,03,19,10,20,5.90
2014,03,19,10,21,5.60
2014,03,19,10,22,6.90
2014,03,19,10,23,6.10
2014,03,19,10,24,7.70
2014,03,19,10,25,8.20
2014,03,19,10,26,8.50
2014,03,19,10,27,7.50
2014,03,19,10,28,11.30
2014,03,19,10,29,10.30
2014,03,19,10,30,11.00
2014,03,19,10,31,7.70
2014,03,19,10,32,11.30
2014,03,19,10,33,16.30
2014,03,19,10,34,15.80
2014,03,19,10,35,13.50
2014,03,19,10,36,19.00
2014,03,19,10,37,26.20
2014,03,19,10,38,26.60
2014,03,19,10,39,22.00
2014,03,19,10,40,19.40
2014,03,19,10,41,19.00
2014,03,19,10,42,19.30
2014,03,19,10,43,20.30
2014,03,19,10,44,25.50
2014,03,19,10,45,23.00
2014,03,19,10,46,20.60
2014,03,19,10,47,17.40
2014,03,19,10,48,20.90
2014,03,19,10,49,21.60
2014,03,19,10,50,18.70
2014,03,19,10,51,21.30
2014,03,19,10,52,18.20
2014,03,19,10,53,23.20
2014,03,19,10,54,24.90
2014,03,19,10,55,22.20
2014,03,19,10,56,23.00
2014,03,19,10,57,22.00
2014,03,19,10,58,20.80
2014,03,19,10,59,28.80
2014,03,19,11,00,24.50
2014,03,19,11,01,22.90
2014,03,19,11,02,24.70
2014,03,19,11,03,24.60
2014,03,19,11,04,22.70
2014,03,19,11,05,19.40
2014,03,19,11,06,19.80
2014,03,19,11,07,21.10
2014,03,19,11,08,22.90
2014,03,19,11,09,24.00
2014,03,19,11,10,24.60
2014,03,19,11,11,25.70
2014,03,19,11,12,28.60
2014,03,19,11,13,24.50
2014,03,19,11,14,14.30
2014,03,19,11,15,16.00
2014,03,19,11,16,20.00
2014,03,19,11,17,21.60
2014,03,19,11,18,24.50
2014,03,19,11,19,25.10
2014,03,19,11,20,26.10
2014,03,19,11,21,21.20
2014,03,19,11,22,18.80
2014,03,19,11,23,19.50
2014,03,19,11,24,12.20
2014,03,19,11,25,15.60
2014,03,19,11,26,19.50
2014,03,19,11,27,16.20
2014,03,19,11,28,18.60
2014,03,19,11,29,21.90
2014,03,19,11,30,16.30
2014,03,19,11,31,11.10
2014,03,19,11,32,10.50
2014,03,19,11,33,8.40
2014,03,19,11,34,5.60
2014,03,19,11,35,10.30
2014,03,19,11,36,15.40
2014,03,19,11,37,21.80
2014,03,19,11,38,19.80
2014,03,19,11,39,20.30
2014,03,19,11,40,23.40
2014,03,19,11,41,21.10
2014,03,19,11,42,22.40
2014,03,19,11,43,21.00
2014,03,19,11,44,18.80
2014,03,19,11,45,15.20
2014,03,19,11,46,20.40
2014,03,19,11,47,20.00
2014,03,19,11,48,19.50
2014,03,19,11,49,20.40
2014,03,19,11,50,14.50
2014,03,19,11,51,21.60
2014,03,19,11,52,20.80
2014,03,19,11,53,21.90
2014,03,19,11,54,19.50
2014,03,19,11,55,16.20
2014,03,19,11,56,20.00
2014,03,19,11,57,19.10
2014,03,19,11,58,21.80
2014,03,19,11,59,22.20
2014,03,19,12,00,17.70
2014,03,19,12,01,21.20
2014,03,19,12,02,23.10
2014,03,19,12,03,22.90
2014,03,19,12,04,19.40
2014,03,19,12,05,11.70
2014,03,19,12,06,10.50
2014,03,19,12,07,14.60
2014,03,19,12,08,17.60
2014,03,19,12,09,17.80
2014,03,19,12,10,18.30
2014,03,19,12,11,19.00
2014,03,19,12,12,20.10
2014,03,19,12,13,15.90
2014,03,19,12,14,10.50
2014,03,19,12,15,18.80
2014,03,19,12,16,22.40
2014,03,19,12,17,21.60
2014,03,19,12,18,19.90
2014,03,19,12,19,22.20
2014,03,19,12,20,13.00
2014,03,19,12,21,15.30
2014,03,19,12,22,22.40
2014,03,19,12,23,16.60
2014,03,19,12,24,19.20
2014,03,19,12,25,13.00
2014,03,19,12,26,13.80
2014,03,19,12,27,15.90
2014,03,19,12,28,21.30
2014,03,19,12,29,18.30
2014,03,19,12,30,20.80
2014,03,19,12,31,12.60
2014,03,19,12,32,21.10
2014,03,19,12,33,20.50
2014,03,19,12,34,20.40
2014,03,19,12,35,18.40
2014,03,19,12,36,19.80
2014,03,19,12,37,24.40
2014,03,19,12,38,15.60
2014,03,19,12,39,17.50
2014,03,19,12,40,20.00
2014,03,19,12,41,17.40
2014,03,19,12,42,16.70
2014,03,19,12,43,17.10
2014,03,19,12,44,11.70
2014,03,19,12,45,12.40
2014,03,19,12,46,17.50
2014,03,19,12,47,17.10
2014,03,19,12,48,18.80
2014,03,19,12,49,16.00
2014,03,19,12,50,16.00
2014,03,19,12,51,19.60
2014,03,19,12,52,18.30
2014,03,19,12,53,15.70
2014,03,19,12,54,16.80
2014,03,19,12,55,15.00
2014,03,19,12,56,13.80
2014,03,19,12,57,15.40
2014,03,19,12,58,16.70
2014,03,19,12,59,13.10
2014,03,19,13,00,16.00
2014,03,19,13,01,15.50
2014,03,19,13,02,19.20
2014,03,19,13,03,17.10
2014,03,19,13,04,19.70
2014,03,19,13,05,20.00
2014,03,19,13,06,16.50
2014,03,19,13,07,16.70
2014,03,19,13,08,17.50
2014,03,19,13,09,15.50
2014,03,19,13,10,13.90
2014,03,19,13,11,20.30
2014,03,19,13,12,19.30
2014,03,19,13,13,16.20
2014,03,19,13,14,13.60
2014,03,19,13,15,16.10
2014,03,19,13,16,11.60
2014,03,19,13,17,23.10
2014,03,19,13,18,19.30
2014,03,19,13,19,17.20
2014,03,19,13,20,20.80
2014,03,19,13,21,21.60
2014,03,19,13,22,21.10
2014,03,19,13,23,20.10
2014,03,19,13,24,22.20
2014,03,19,13,25,15.10
2014,03,19,13,26,15.00
2014,03,19,13,27,16.80
2014,03,19,13,28,10.50
2014,03,19,13,29,12.60
2014,03,19,13,30,17.90
2014,03,19,13,31,18.20
2014,03,19,13,32,20.80
2014,03,19,13,33,20.10
2014,03,19,13,34,20.00
2014,03,19,13,35,15.40
2014,03,19,13,36,8.50
2014,03,19,13,37,7.90
2014,03,19,13,38,11.00
2014,03,19,13,39,14.60
2014,03,19,13,40,14.10
2014,03,19,13,41,14.00
2014,03,19,13,42,14.80
2014,03,19,13,43,15.00
2014,03,19,13,44,17.00
2014,03,19,13,45,13.40
2014,03,19,13,46,10.90
2014,03,19,13,47,12.40
2014,03,19,13,48,16.50
2014,03,19,13,49,15.00
2014,03,19,13,50,13.80
2014,03,19,13,51,18.30
2014,03,19,13,52,15.80
2014,03,19,13,53,11.90
2014,03,19,13,54,16.00
2014,03,19,13,55,18.30
2014,03,19,13,56,15.90
2014,03,19,13,57,20.50
2014,03,19,13,58,18.50
2014,03,19,13,59,15.60
2014,03,19,14,00,13.90
2014,03,19,14,01,13.80
2014,03,19,14,02,17.60
2014,03,19,14,03,15.90
2014,03,19,14,04,20.10
2014,03,19,14,05,21.90
2014,03,19,14,06,15.30
2014,03,19,14,07,20.80
2014,03,19,14,08,22.10
2014,03,19,14,09,21.90
2014,03,19,14,10,18.20
2014,03,19,14,11,16.30
2014,03,19,14,12,16.00
2014,03,19,14,13,15.30
2014,03,19,14,14,10.40
2014,03,19,14,15,16.90
2014,03,19,14,16,13.10
2014,03,19,14,17,13.30
2014,03,19,14,18,18.70
2014,03,19,14,19,13.90
2014,03,19,14,20,16.20
2014,03,19,14,21,17.30
2014,03,19,14,22,16.30
2014,03,19,14,23,16.30
2014,03,19,14,24,14.40
2014,03,19,14,25,15.10
2014,03,19,14,26,13.60
2014,03,19,14,27,10.40
2014,03,19,14,28,15.90
2014,03,19,14,29,15.30
2014,03,19,14,30,15.90
2014,03,19,14,31,14.00
2014,03,19,14,32,16.50
2014,03,19,14,33,19.50
2014,03,19,14,34,19.50
2014,03,19,14,35,13.00
2014,03,19,14,36,15.50
2014,03,19,14,37,14.80
2014,03,19,14,38,12.00
2014,03,19,14,39,13.00
2014,03,19,14,40,17.70
2014,03,19,14,41,15.00
2014,03,19,14,42,13.70
2014,03,19,14,43,11.80
2014,03,19,14,44,8.70
2014,03,19,14,45,9.90
2014,03,19,14,46,15.60
2014,03,19,14,47,16.20
2014,03,19,14,48,11.30
2014,03,19,14,49,9.50
2014,03,19,14,50,9.40
2014,03,19,14,51,10.80
2014,03,19,14,52,12.30
2014,03,19,14,53,11.30
2014,03,19,14,54,11.30
2014,03,19,14,55,11.70
2014,03,19,14,56,15.70
2014,03,19,14,57,8.90
2014,03,19,14,58,10.50
2014,03,19,14,59,8.80
2014,03,19,15,00,11.60
2014,03,19,15,01,8.00
2014,03,19,15,02,8.10
2014,03,19,15,03,8.90
2014,03,19,15,04,7.50
2014,03,19,15,05,15.40
2014,03,19,15,06,12.30
2014,03,19,15,07,10.50
2014,03,19,15,08,10.80
2014,03,19,15,09,14.10
2014,03,19,15,10,9.40
2014,03,19,15,11,9.40
2014,03,19,15,12,14.50
2014,03,19,15,13,14.50
2014,03,19,15,14,14.50
2014,03,19,15,15,14.30
2014,03,19,15,16,8.60
2014,03,19,15,17,16.60
2014,03,19,15,18,16.10
2014,03,19,15,19,12.10
2014,03,19,15,20,12.50
2014,03,19,15,21,18.50
2014,03,19,15,22,13.60
2014,03,19,15,23,11.30
2014,03,19,15,24,7.50
2014,03,19,15,25,11.60
2014,03,19,15,26,8.50
2014,03,19,15,27,10.30
2014,03,19,15,28,8.70
2014,03,19,15,29,12.20
2014,03,19,15,30,10.30
2014,03,19,15,31,11.10
2014,03,19,15,32,17.80
2014,03,19,15,33,21.90
2014,03,19,15,34,25.50
2014,03,19,15,35,19.10
2014,03,19,15,36,19.90
2014,03,19,15,37,19.30
2014,03,19,15,38,22.30
2014,03,19,15,39,20.50
2014,03,19,15,40,22.20
2014,03,19,15,41,26.00
2014,03,19,15,42,25.60
2014,03,19,15,43,20.50
2014,03,19,15,44,24.90
2014,03,19,15,45,19.20
2014,03,19,15,46,17.10
2014,03,19,15,47,14.20
2014,03,19,15,48,17.30
2014,03,19,15,49,19.80
2014,03,19,15,50,18.80
2014,03,19,15,51,21.30
2014,03,19,15,52,20.80
2014,03,19,15,53,21.30
2014,03,19,15,54,14.70
2014,03,19,15,55,15.20
2014,03,19,15,56,12.20
2014,03,19,15,57,18.20
2014,03,19,15,58,14.20
2014,03,19,15,59,12.60
2014,03,19,16,00,11.30
2014,03,19,16,01,14.30
2014,03,19,16,02,14.30
2014,03,19,16,03,14.90
2014,03,19,16,04,14.80
2014,03,19,16,05,13.60
2014,03,19,16,06,16.00
2014,03,19,16,07,15.70
2014,03,19,16,08,17.50
2014,03,19,16,09,15.40
2014,03,19,16,10,13.40
2014,03,19,16,11,16.30
2014,03,19,16,12,10.10
2014,03,19,16,13,14.00
2014,03,19,16,14,14.60
2014,03,19,16,15,13.90
2014,03,19,16,16,13.00
2014,03,19,16,17,11.40
2014,03,19,16,18,13.80
2014,03,19,16,19,14.30
2014,03,19,16,20,10.60
2014,03,19,16,21,12.90
2014,03,19,16,22,11.30
2014,03,19,16,23,7.80
2014,03,19,16,24,11.80
2014,03,19,16,25,10.10
2014,03,19,16,26,10.50
2014,03,19,16,27,6.90
2014,03,19,16,28,7.40
2014,03,19,16,29,6.70
2014,03,19,16,30,11.10
2014,03,19,16,31,8.60
2014,03,19,16,32,4.30
2014,03,19,16,33,5.00
2014,03,19,16,34,4.10
2014,03,19,16,35,3.70
2014,03,19,16,36,5.70
2014,03,19,16,37,6.50
2014,03,19,16,38,10.50
2014,03,19,16,39,11.30
2014,03,19,16,40,13.00
2014,03,19,16,41,11.20
2014,03,19,16,42,6.40
2014,03,19,16,43,10.90
2014,03,19,16,44,12.60
2014,03,19,16,45,12.50
2014,03,19,16,46,13.40
2014,03,19,16,47,8.50
2014,03,19,16,48,9.90
2014,03,19,16,49,11.50
2014,03,19,16,50,10.00
2014,03,19,16,51,8.40
2014,03,19,16,52,7.40
2014,03,19,16,53,7.00
2014,03,19,16,54,6.90
2014,03,19,16,55,5.60
2014,03,19,16,56,8.20
2014,03,19,16,57,8.40
2014,03,19,16,58,7.90
2014,03,19,16,59,5.90
2014,03,19,17,00,5.40
2014,03,19,17,01,5.40
2014,03,19,17,02,5.40
2014,03,19,17,03,7.50
2014,03,19,17,04,12.60
2014,03,19,17,05,7.10
2014,03,19,17,06,8.00
2014,03,19,17,07,9.70
2014,03,19,17,08,14.40
2014,03,19,17,09,13.20
2014,03,19,17,10,9.70
2014,03,19,17,11,7.30
2014,03,19,17,12,14.70
2014,03,19,17,13,15.30
2014,03,19,17,14,17.50
2014,03,19,17,15,21.30
2014,03,19,17,16,23.00
2014,03,19,17,17,18.40
2014,03,19,17,18,9.50
2014,03,19,17,19,8.30
2014,03,19,17,20,14.70
2014,03,19,17,21,14.60
2014,03,19,17,22,13.60
2014,03,19,17,23,8.90
2014,03,19,17,24,10.10
2014,03,19,17,25,11.70
2014,03,19,17,26,10.30
2014,03,19,17,27,11.70
2014,03,19,17,28,12.80
2014,03,19,17,29,9.70
2014,03,19,17,30,9.80
2014,03,19,17,31,12.50
2014,03,19,17,32,9.10
2014,03,19,17,33,8.90
2014,03,19,17,34,10.40
2014,03,19,17,35,16.40
2014,03,19,17,36,17.10
2014,03,19,17,37,12.50
2014,03,19,17,38,9.30
2014,03,19,17,39,8.60
2014,03,19,17,40,9.50
2014,03,19,17,41,12.50
2014,03,19,17,42,10.50
2014,03,19,17,43,9.60
2014,03,19,17,44,10.10